Theta_e
312 313 313 313 313 312 312 311 310 310 309 308 307 308 309 310 311 312 314 314 313 316 317 317 317 318 318 321 327 327 328 328 329 332 332 332 332 332 332 333 333 335 335 333 333 332 332 334 333 334 340 339 339 340
310 312 313 312 310 311 312 312 312 311 310 309 308 307 308 309 311 312 315 315 314 313 316 316 316 316 317 318 320 323 326 328 330 333 332 332 333 332 334 334 333 334 334 334 333 334 340 336 335 335 338 338 340 340
308 308 309 310 311 312 312 312 312 312 312 310 309 308 308 308 311 313 312 313 313 314 318 320 321 321 318 315 316 320 324 323 327 326 331 334 334 332 332 332 332 332 331 332 332 331 332 334 334 335 337 339 339 336
312 312 312 312 313 313 313 313 312 312 312 312 309 308 308 309 312 313 312 313 314 315 320 323 321 324 323 320 316 315 319 320 321 324 327 330 331 330 331 331 331 331 333 333 333 332 332 333 332 335 337 337 334 333
313 313 313 313 314 314 314 313 313 311 312 313 311 309 309 310 313 312 312 314 314 315 323 323 321 321 322 322 321 317 315 317 319 324 326 328 328 329 329 330 330 329 329 329 330 330 332 332 334 335 335 334 332 332
313 313 313 314 314 314 313 312 312 311 312 313 313 311 311 313 312 312 318 316 317 313 318 326 323 320 324 324 324 322 318 317 319 322 324 323 324 326 328 327 326 325 325 325 328 329 330 331 333 334 333 332 332 332
313 313 314 314 314 312 312 311 312 312 311 312 313 314 313 314 313 316 318 317 314 315 318 325 325 321 325 325 326 325 323 321 321 322 323 324 325 324 325 323 323 323 324 326 326 327 329 328 330 332 331 332 332 332
314 314 314 313 312 310 309 309 310 311 311 311 313 314 314 314 314 315 315 315 312 317 320 325 325 324 324 325 327 326 325 325 325 326 327 327 327 327 328 327 326 325 324 324 323 324 328 327 328 330 331 333 331 331
314 313 314 312 310 309 309 310 310 310 311 312 313 313 315 315 319 319 317 317 317 318 322 325 327 331 325 325 327 326 326 328 325 328 327 327 329 330 330 328 328 327 327 325 325 325 328 327 330 331 332 332 331 330
313 313 312 310 309 309 309 310 310 310 310 312 313 316 320 318 317 316 315 316 317 319 320 324 324 327 324 326 327 327 326 327 330 329 326 329 330 327 327 328 328 328 328 328 326 328 329 329 331 331 331 331 330 329
313 313 311 310 309 309 309 309 309 310 311 311 315 316 314 316 316 319 321 321 321 322 322 322 322 325 323 326 330 326 332 328 328 328 329 330 330 330 329 329 329 328 327 327 327 328 329 330 331 331 330 330 329 330
313 313 310 309 308 309 309 308 309 309 309 309 309 310 312 316 319 320 322 322 323 325 325 325 324 324 327 326 328 329 328 328 328 329 330 330 340 333 331 330 329 328 328 328 329 330 331 331 331 330 330 330 329 329
313 312 310 309 309 309 309 308 308 308 310 310 311 312 316 319 322 320 322 324 326 325 327 327 329 327 328 325 326 327 327 328 328 329 329 336 334 332 331 330 329 328 329 330 330 329 329 328 327 326 326 326 326 327
313 311 310 309 308 308 308 307 307 308 309 312 315 318 319 321 320 321 322 325 324 326 327 328 328 328 328 329 329 328 327 328 328 327 328 340 334 333 332 331 330 329 329 328 328 328 327 326 326 325 324 324 325 327
312 311 311 309 308 307 306 306 307 307 309 312 316 320 320 318 321 322 321 322 325 326 327 327 325 325 327 327 327 328 329 330 327 329 335 334 333 332 331 330 329 329 328 328 326 325 325 324 325 325 325 325 325 325
311 310 310 308 307 306 305 306 307 308 309 310 315 318 318 318 319 321 320 321 322 324 324 325 326 326 327 326 328 328 327 328 332 332 331 332 332 331 331 330 329 326 323 323 323 323 324 324 324 325 325 325 325 325
309 309 308 306 306 305 305 306 310 308 310 312 315 316 316 317 318 319 319 319 319 321 325 325 325 325 326 327 327 326 329 332 328 330 331 331 331 330 329 328 324 323 324 323 323 324 324 324 324 323 324 324 324 325
308 307 306 305 305 305 306 307 310 311 312 312 314 315 316 317 317 317 317 318 319 319 321 323 324 325 326 325 326 327 326 326 326 329 330 331 329 328 328 327 324 323 323 324 324 325 325 324 323 322 322 322 323 324
307 306 305 305 304 305 306 308 309 311 311 312 313 314 314 314 315 314 315 316 316 317 318 319 322 323 324 322 324 323 322 323 325 325 326 328 327 327 326 325 324 323 323 324 325 324 324 325 325 324 322 322 323 324
305 305 305 305 305 305 307 308 309 310 311 313 311 312 313 313 313 313 314 315 315 316 317 318 319 319 319 320 319 321 321 323 323 324 326 325 326 327 326 324 322 323 322 324 324 323 324 325 325 325 323 323 325 324
305 305 305 305 306 305 307 308 309 309 310 311 311 311 311 312 313 314 314 314 314 315 318 316 317 317 317 317 318 320 322 322 323 324 325 325 325 326 324 322 322 322 321 321 322 321 322 322 323 324 324 325 324 322
304 304 306 305 305 305 305 307 308 308 308 309 310 311 312 313 313 314 316 315 315 316 316 317 317 317 318 318 318 319 320 320 322 323 322 322 323 325 324 325 322 321 321 321 321 321 321 322 322 323 323 322 322 322
304 304 305 305 306 306 306 308 309 308 311 312 313 314 315 316 315 316 316 317 318 318 319 319 320 320 321 321 321 320 320 320 320 322 323 322 322 324 324 325 324 321 321 322 321 321 321 320 318 320 321 321 321 320
304 305 305 307 305 307 308 309 309 310 311 313 314 315 315 316 315 316 319 320 319 319 320 319 319 319 321 323 322 323 321 320 320 321 322 322 321 323 324 324 325 321 321 321 321 321 321 320 320 320 321 321 321 321
305 305 306 306 308 308 310 310 311 311 313 314 314 315 316 315 318 319 321 320 316 316 317 316 314 317 319 321 323 324 323 320 320 320 322 322 321 319 322 324 325 322 320 322 323 322 321 320 320 319 321 320 321 320
306 306 306 308 309 310 310 312 313 312 313 314 315 314 315 316 318 320 321 319 315 314 312 314 314 313 316 319 321 322 321 321 320 320 321 322 322 321 321 323 323 320 321 320 322 322 322 322 320 320 319 319 320 320
307 307 307 307 308 309 309 309 310 312 313 314 314 315 315 316 318 318 319 317 316 316 313 313 312 313 315 317 319 320 321 321 322 321 320 321 322 320 322 324 323 321 320 320 320 321 321 322 322 320 319 320 320 319
306 307 308 308 308 308 309 310 310 311 312 313 313 314 315 318 320 318 316 315 314 313 313 313 313 316 315 317 318 319 321 323 323 322 322 321 321 321 320 322 323 323 320 322 321 321 322 322 322 322 321 320 320 321
306 307 307 308 308 308 308 308 310 311 311 313 315 315 314 315 315 315 315 316 316 316 316 317 317 316 316 317 318 320 322 324 323 322 322 323 322 321 322 322 322 322 321 321 320 321 323 322 323 323 322 322 321 321
307 307 307 308 309 309 309 310 310 311 311 311 311 313 314 315 316 317 318 319 320 321 319 318 317 317 318 320 321 321 322 323 324 323 322 322 322 322 322 322 322 322 321 321 321 322 321 320 321 321 320 320 320 321
307 308 307 308 309 310 310 310 310 310 311 312 314 315 315 316 317 319 320 321 323 322 320 318 318 319 320 320 320 323 324 325 325 325 325 323 324 324 324 323 322 321 321 322 322 323 323 322 322 322 322 322 322 322
308 307 307 308 311 311 311 312 314 315 316 317 318 318 319 320 321 322 322 322 323 320 320 321 320 321 321 322 324 325 324 325 325 326 326 325 325 325 323 321 321 321 321 322 323 322 322 323 323 322 322 322 322 323
309 307 307 307 310 316 318 316 319 318 319 319 320 320 321 322 323 322 322 323 323 323 323 323 323 323 324 324 323 325 324 325 322 321 321 321 321 321 320 321 322 322 322 322 322 322 322 322 323 322 322 322 322 323
Wind_Speed
18 17 18 19 21 22 22 23 23 21 20 18 19 19 18 18 18 15 8 9 5 11 24 20 17 15 12 10 9 5 6 11 8 10 10 9 10 7 8 11 11 13 13 12 15 16 20 11 0 4 8 10 9 3
17 17 18 20 21 22 23 24 24 24 22 20 19 19 18 17 18 17 5 8 9 12 15 19 20 19 18 17 12 8 8 6 8 5 7 7 6 5 2 9 10 9 10 7 8 6 7 5 7 4 6 8 4 6
18 19 19 20 22 23 24 25 25 24 23 21 19 19 18 18 18 18 16 11 10 14 24 16 11 10 13 23 17 9 9 4 1 5 7 5 3 6 7 10 14 6 7 6 11 13 10 9 6 5 5 8 9 11
19 19 20 22 23 25 26 27 26 25 23 22 20 19 19 19 19 18 18 9 8 9 7 4 2 2 5 7 18 23 13 5 8 7 9 6 6 5 9 13 9 5 4 2 9 13 11 10 9 6 7 9 10 8
19 20 22 24 27 28 29 29 28 26 22 22 20 19 19 20 20 17 16 16 10 5 8 13 15 6 5 7 10 15 18 14 10 9 6 7 10 7 8 11 10 13 13 10 11 13 7 7 9 11 12 11 12 10
21 23 25 28 29 31 31 28 27 25 20 21 21 20 20 20 16 9 3 3 2 8 7 4 5 3 3 6 7 8 12 13 13 8 7 10 8 2 6 11 18 17 20 15 11 9 7 10 8 13 14 13 10 8
23 25 28 30 31 29 28 27 26 25 21 21 23 21 19 16 10 6 2 3 1 4 5 5 3 7 6 7 7 7 9 9 10 14 12 12 7 8 8 12 16 16 13 10 7 11 13 17 10 14 15 12 10 8
24 26 29 30 27 27 29 29 27 25 23 20 21 19 15 5 1 4 9 9 6 4 6 4 4 6 9 10 9 8 9 9 9 8 7 7 7 7 5 10 9 10 12 15 15 13 18 20 18 15 14 13 13 11
25 28 29 25 25 26 27 26 25 23 20 18 17 14 3 1 3 5 4 4 5 5 7 5 7 3 9 10 8 8 11 6 8 6 10 8 8 7 6 9 9 8 7 9 11 15 14 16 16 15 16 14 13 11
25 28 26 24 25 27 25 25 24 22 18 13 8 2 5 2 4 4 2 3 4 6 7 6 10 5 4 10 10 7 11 7 6 9 13 7 8 17 16 18 5 4 5 8 10 10 9 11 12 14 16 16 13 9
27 26 23 23 24 24 23 22 23 22 12 4 4 3 3 3 2 4 4 7 7 5 8 11 14 8 6 5 1 5 2 4 3 6 6 6 7 1 1 2 3 5 9 10 11 10 13 11 5 7 7 7 6 8
24 24 22 23 20 21 20 17 20 20 15 12 10 13 7 3 6 4 4 4 5 4 5 8 9 14 3 4 5 4 5 2 4 2 3 8 5 4 4 3 2 5 5 6 5 4 4 6 5 3 3 6 7 8
23 21 21 23 19 18 17 16 18 19 17 6 2 3 3 5 1 6 6 4 4 3 4 5 5 5 1 7 6 2 5 6 6 4 7 3 8 5 4 4 5 4 7 7 8 7 6 5 3 4 5 6 7 9
23 20 20 23 18 15 16 17 17 15 8 3 4 3 5 5 5 4 5 3 4 3 1 4 2 1 4 4 3 4 3 2 4 5 3 6 7 6 6 8 8 8 7 6 5 4 2 1 2 4 5 6 8 10
23 20 20 18 15 16 19 16 13 11 4 4 4 4 7 8 3 6 5 5 5 5 4 4 4 5 5 4 4 3 3 5 3 1 4 7 8 9 8 6 5 5 4 3 1 1 2 4 5 7 7 8 10 11
19 22 16 16 18 18 17 13 7 4 3 4 6 7 8 8 5 5 3 1 5 4 3 4 3 2 5 3 3 6 4 2 3 2 10 9 9 8 7 6 6 4 3 2 2 2 3 5 6 7 8 9 11 12
16 14 14 20 20 18 13 4 4 4 4 4 5 6 9 11 10 6 5 5 5 8 2 2 3 4 2 3 4 3 2 3 6 5 5 7 8 7 7 6 5 5 4 2 2 3 5 7 8 8 8 7 8 8
17 14 16 18 17 12 4 3 4 5 6 9 8 8 8 9 10 10 6 6 7 4 4 2 4 4 3 4 3 4 7 6 5 3 2 5 6 6 6 6 5 3 3 3 4 4 5 7 6 6 6 5 5 6
17 15 14 11 9 6 3 3 4 4 5 9 9 10 10 11 11 12 13 9 7 7 5 4 5 4 6 8 10 5 5 10 3 3 3 6 6 6 4 6 6 3 0 2 4 4 4 4 4 3 2 2 2 2
12 10 7 4 4 3 3 4 4 6 4 4 7 9 11 13 12 12 13 15 15 14 7 5 8 13 15 4 8 9 7 9 4 3 5 4 6 5 6 6 5 4 3 1 0 3 2 2 6 5 4 4 6 8
7 3 3 4 4 6 4 4 5 6 8 7 8 9 12 13 13 14 13 14 13 13 12 21 22 19 16 16 15 9 8 6 7 8 4 3 9 7 6 6 5 4 3 4 6 4 5 4 6 7 7 7 8 7
4 3 4 5 4 3 4 5 6 8 6 10 13 9 7 6 8 9 5 11 16 20 20 20 18 16 15 14 14 14 15 13 10 9 4 3 10 9 5 7 8 6 3 3 7 4 4 6 4 4 8 7 7 8
5 3 4 4 3 3 6 4 4 4 4 3 5 4 4 4 3 2 5 9 9 8 9 7 9 11 13 15 14 15 15 16 18 12 11 7 6 9 10 9 11 9 8 5 3 5 7 3 4 10 6 4 3 4
4 3 3 3 5 4 4 4 4 4 4 4 3 4 1 0 2 4 5 2 4 3 4 7 9 12 14 14 17 17 19 18 19 15 13 9 9 10 9 11 16 12 9 6 6 5 7 5 7 6 6 7 3 2
3 4 4 5 5 4 4 4 4 3 3 3 4 3 2 2 3 3 2 4 3 2 6 12 12 10 13 14 13 13 15 17 21 20 16 14 13 10 11 11 13 14 12 11 11 11 7 7 6 8 13 9 10 8
4 6 6 3 3 3 1 3 4 1 5 3 4 2 2 1 3 3 1 5 6 1 12 12 11 16 11 9 11 8 7 11 15 21 18 19 13 12 17 14 12 13 13 11 10 8 10 10 8 8 7 9 11 11
4 4 5 6 3 2 4 6 9 7 4 3 1 1 0 3 3 3 2 1 5 12 18 19 16 15 11 11 10 6 9 14 12 14 18 17 13 18 19 10 10 14 13 11 11 10 9 9 12 9 9 9 10 10
4 4 3 2 4 6 5 4 4 4 3 4 2 2 2 3 1 3 4 10 16 22 22 16 15 9 7 7 7 6 7 6 6 9 8 9 12 16 26 17 15 9 8 13 11 9 11 11 10 13 12 11 11 13
5 5 5 10 9 5 5 5 6 6 6 5 4 4 6 11 18 20 18 16 13 14 12 10 9 7 9 9 10 9 9 5 7 10 13 12 13 18 21 19 17 13 14 13 10 11 8 7 6 7 8 11 12 14
4 5 4 5 4 5 9 9 11 10 10 9 11 14 16 16 15 13 11 11 8 4 8 6 2 2 4 1 2 5 6 6 10 13 12 12 11 12 17 21 21 18 16 16 14 16 16 15 16 16 15 14 14 13
4 4 4 7 5 8 11 14 15 17 19 17 15 17 16 12 10 5 7 9 11 4 2 1 4 10 2 6 5 7 6 4 5 5 4 10 10 8 18 20 18 17 16 15 15 16 12 13 15 15 16 17 17 16
6 6 2 3 6 7 11 7 6 8 11 8 7 4 3 3 2 5 9 7 8 8 7 4 4 4 2 8 6 3 6 5 4 3 3 5 3 3 6 11 15 16 15 15 18 14 12 13 15 14 18 14 16 18
4 6 7 5 5 5 2 5 4 3 3 1 1 2 4 6 4 7 9 9 8 7 3 4 5 6 7 4 2 1 1 0 2 3 4 4 4 1 6 8 9 11 15 17 16 14 15 16 17 15 16 15 13 12
Wind_Direction
338 344 347 348 349 349 350 351 346 338 330 331 333 333 336 338 339 343 299 287 281 287 283 276 272 268 270 248 266 37 259 221 255 234 239 241 250 223 228 257 217 209 220 228 251 264 262 41 147 277 23 333 336 300
332 333 334 337 339 342 343 342 342 341 335 327 325 324 327 330 332 333 328 305 296 264 264 287 273 252 246 255 286 280 317 310 360 279 242 257 265 236 245 251 199 244 284 321 321 353 123 358 350 341 294 283 258 143
329 331 331 332 334 335 336 335 334 333 332 329 321 318 319 321 323 320 308 291 305 282 295 251 254 256 240 235 224 256 246 352 282 321 321 318 316 306 265 226 270 231 244 258 284 287 321 1 329 289 247 207 157 139
326 329 329 330 330 330 329 328 328 327 326 326 322 317 315 315 315 310 299 290 281 288 277 135 178 220 240 221 217 223 245 299 286 292 281 271 262 256 273 285 311 324 72 250 271 262 277 267 262 222 172 147 163 176
323 325 327 327 327 327 324 323 322 322 320 322 320 316 314 311 309 304 295 289 255 242 321 309 291 266 230 212 213 218 225 241 267 258 238 249 264 275 267 282 280 277 272 256 267 277 313 277 184 185 185 189 177 167
318 322 323 324 324 324 323 322 318 318 316 320 317 314 314 307 302 305 275 284 211 197 294 285 4 208 190 179 182 194 207 220 236 259 257 260 268 311 263 258 257 259 265 275 261 293 309 295 208 193 199 196 179 183
315 317 319 322 324 325 325 323 320 315 315 317 317 307 313 301 279 205 335 155 324 190 263 276 215 157 178 169 175 178 187 204 220 226 241 259 232 190 256 260 277 284 288 277 275 288 278 259 243 207 210 190 171 161
315 318 320 324 325 326 323 320 315 312 315 312 312 307 311 300 137 236 256 255 257 242 258 272 260 169 185 194 183 186 184 205 205 249 228 242 203 217 264 269 279 288 285 278 267 249 256 258 231 203 199 180 182 178
317 321 321 322 326 327 327 327 324 318 314 313 310 306 267 175 229 232 267 243 218 232 294 250 273 58 168 219 183 180 205 207 217 221 242 241 239 227 211 238 255 260 267 273 261 246 250 238 206 197 196 188 206 190
316 318 319 320 326 326 330 330 335 329 323 317 316 257 203 197 246 259 294 183 215 208 232 258 274 255 220 174 190 204 190 242 206 214 224 237 250 260 251 239 278 318 254 273 261 254 227 230 204 197 202 215 210 215
313 318 315 319 323 328 327 331 340 348 350 16 313 340 323 276 294 227 220 217 182 216 226 236 244 259 192 258 328 223 20 245 256 230 216 240 233 4 150 29 344 307 272 254 249 245 235 220 208 212 198 217 211 219
313 317 317 320 316 326 325 331 337 345 344 323 297 293 290 227 227 237 231 213 214 239 211 213 191 217 159 231 253 175 234 239 229 209 259 249 84 78 98 86 28 321 291 232 205 163 73 109 120 157 195 219 234 232
312 312 313 322 312 318 321 327 330 332 334 335 279 272 246 211 253 221 206 216 207 225 184 198 186 197 233 229 230 190 230 235 166 224 233 79 106 96 88 78 71 96 113 112 114 131 138 142 168 202 233 246 248 247
308 307 308 325 307 307 315 316 322 327 333 272 234 239 238 197 235 231 281 37 334 350 267 168 222 179 200 247 233 221 288 288 229 232 208 130 117 111 112 111 118 123 128 137 145 147 154 211 245 255 255 260 261 254
304 308 309 315 302 305 311 311 309 312 276 266 235 242 222 250 268 286 309 287 335 310 291 213 205 223 196 206 226 212 218 229 233 212 97 103 119 122 122 128 128 121 109 96 29 331 312 308 295 286 276 264 259 254
306 315 313 313 311 312 312 309 299 276 250 248 249 263 299 270 270 226 246 81 359 330 288 238 223 251 233 215 232 224 231 201 60 72 110 133 134 138 135 127 117 109 90 74 29 1 341 333 318 300 285 268 259 258
303 307 296 304 313 316 313 290 220 233 240 246 250 262 280 275 280 290 280 267 299 296 283 288 240 220 226 236 226 224 358 76 56 54 88 139 150 143 140 137 128 115 96 62 4 326 318 322 312 302 288 284 254 256
296 304 299 307 317 335 308 241 247 243 243 241 247 251 252 266 285 285 296 328 294 272 286 275 302 239 226 253 70 17 59 90 59 72 177 175 157 153 151 147 143 133 96 42 358 333 325 325 324 322 311 277 257 250
296 294 299 303 307 305 281 257 240 268 261 290 278 264 267 268 268 267 270 262 259 271 285 264 246 244 245 277 10 40 339 304 161 208 246 218 193 198 182 174 176 170 128 355 347 0 4 22 6 349 22 112 52 89
297 297 294 274 294 269 260 252 247 267 267 260 261 260 267 269 268 260 251 243 237 224 215 231 248 265 281 332 357 313 324 341 306 299 244 220 172 172 175 186 188 167 204 202 226 35 302 55 49 68 105 116 121 109
314 300 295 279 261 239 279 281 252 267 290 271 280 276 271 255 250 247 239 236 238 231 241 245 257 267 271 273 277 282 291 282 304 320 250 224 220 180 176 177 182 192 225 175 158 155 86 56 86 91 108 125 124 111
271 277 276 272 250 247 261 244 262 302 276 275 286 273 272 265 254 259 272 236 229 236 236 252 257 263 263 255 260 258 251 254 255 250 252 216 203 192 200 229 204 201 197 261 157 135 126 112 81 157 142 129 137 156
276 262 245 238 240 233 265 244 253 233 257 268 271 248 229 222 252 194 237 219 237 240 250 257 276 274 277 272 270 259 245 238 231 229 225 214 209 204 222 220 231 217 199 218 243 174 135 96 109 146 154 143 182 161
260 251 245 238 210 255 244 225 233 278 284 267 257 270 288 276 254 237 248 169 98 60 31 355 329 305 295 277 272 254 237 227 224 218 218 216 214 213 216 228 231 220 212 201 195 209 182 163 162 188 196 209 187 224
246 235 222 257 221 234 233 229 203 207 263 261 280 287 20 19 262 254 248 102 83 333 312 325 333 303 287 287 295 259 251 218 211 208 215 217 213 215 232 236 230 217 207 210 233 210 199 198 195 193 190 198 216 210
236 210 203 239 218 251 294 297 350 176 262 254 238 336 34 314 270 286 50 179 165 45 350 330 321 323 295 277 299 298 255 228 228 214 212 217 204 218 215 245 222 211 211 204 216 230 231 220 204 200 213 205 217 233
247 238 224 249 252 216 268 271 256 264 265 263 296 13 283 254 243 262 353 307 310 302 316 321 318 307 288 280 273 317 300 233 228 233 208 203 205 201 206 238 232 235 214 215 216 213 241 230 212 220 213 223 223 210
271 289 258 265 251 259 264 260 256 247 249 257 201 218 242 247 262 231 262 312 301 301 302 299 300 288 278 276 252 280 292 259 210 175 181 200 219 211 199 232 250 262 192 240 218 237 231 231 226 239 216 224 218 224
248 250 267 270 253 252 248 227 255 223 229 248 259 272 262 284 308 312 311 309 296 294 303 307 299 278 274 268 271 248 236 256 173 190 198 203 202 207 209 226 231 234 230 231 230 234 242 245 256 255 265 258 240 236
246 218 254 270 249 228 229 223 266 297 311 301 293 288 291 293 301 308 315 318 330 337 322 348 15 218 164 145 196 207 200 207 216 204 204 218 209 216 214 218 225 226 221 221 226 228 226 238 253 257 252 253 256 251
254 236 249 246 259 265 266 269 273 278 278 276 270 263 274 284 302 318 341 338 321 104 355 349 134 151 87 265 261 258 239 211 232 238 280 261 224 241 231 219 208 209 214 220 235 245 234 250 246 239 236 243 247 249
213 218 246 274 285 284 292 269 255 243 274 261 262 210 214 249 355 10 10 10 59 58 41 16 64 111 339 327 317 67 79 75 74 104 191 261 297 72 166 209 215 210 219 227 236 244 246 248 236 241 257 238 249 253
207 217 220 267 277 274 245 218 243 256 240 272 320 22 357 14 52 22 31 31 21 29 39 341 357 26 22 27 4 36 24 337 340 359 13 23 35 317 240 254 258 239 241 243 249 250 253 269 272 256 253 262 264 273